Location: Cartignies
(50.0929°N, 3.8447°E)
Time: 14:18:40
(UTC+00:00)

Cosmos 1271 Rocket - Pass Details

Date: 12 January 2026
Orbit: 428 x 456 km, 81.2° (Epoch: 16 February)

Event Time Altitude Azimuth Distance (km) Brightness Sun altitude
Rises 16:39:02 0° 190° (S) 2,480 6.8 -5.3°
Reaches altitude 10° 16:41:06 10° 190° (S) 1,610 5.8 -5.6°
Maximum altitude 16:44:38 88° 104° (ESE) 470 2.5 -6.1°
Drops below altitude 10° 16:48:11 10° 12° (NNE) 1,619 4.9 -6.6°
Sets 16:50:16 0° 13° (NNE) 2,495 5.8 -6.9°
